sat.trackr.live / text

‹ back to catalog

STARLINK-36082

NORAD 66872 · 2025-281AA

PAYLOAD ACTIVE UNKNOWN

§ Identity

Operator
Country
US
Launch date
2025-12-02
Launch site
AFETR
Launch vehicle
Mass (kg)
RCS (m²)

Purposes: comms

External: N2YO · Heavens-Above · Gunter

§ Orbital elements

Epoch: 2026-05-25T01:17:05.812800Z

Period
94.27 min
Inclination
42.9994°
Eccentricity
0.0002692
Mean motion
15.27593781 rev/d
Perigee alt
481.2 km
Apogee alt
484.9 km
Semi-major
6,861.1 km
B*
5.3475e-4
RAAN
272.2699°
Arg perigee
267.6630°
Mean anomaly
92.3914°
Rev number
2,785

§ Raw data

STARLINK-360821 66872U 25281AA  26145.05353950  .00014489  00000+0  53475-3 0  99972 66872  42.9994 272.2699 0002692 267.6630  92.3914 15.27593781 27852

JSON: /api/v1/satellites/66872 · /tle

For live sub-satellite position, see the globe view (requires WebGL).

§ Visibility from observer

Set your observer location to see the next 7 days of passes ≥ 10°. The values pass through the URL so the page stays shareable.

No JS? Fill the form by hand. The geolocation button needs JavaScript.